Home   Weather   Jalalabad   Past weeks

Flag for Afghanistan Past Weather in Jalalabad, Afghanistan — Yesterday and Last 2 Weeks

Now
59 °F

Haze.


Feels Like: 59 °F
Forecast: 36 / 72 °F
Wind: 5 mph from Southwest

Location: Peshawar Airport

Current Time: Dec 3, 2016 at 12:25:01 am

Latest Report: Dec 3, 2016 at 12:00 am


Visibility: 2 mi

Pressure: 30.09 "Hg (28.12 "Hg at 572m altitude)

Humidity: 55%

Dew Point: 43 °F

Location of JalalabadLocation

Past Weather in Jalalabad — Graph

°F

Jalalabad Temperature Yesterday

Maximum temperature yesterday: 79 °F (at 12:30 pm)
Minimum temperature yesterday: 52 °F (at 5:30 am)
Average temperature yesterday: 65 °F

High & Low Weather Summary for the Past Weeks

 TemperatureHumidityPressure
High82 °F (Nov 18, 2:25 pm)82% (Nov 23, 6:30 am)30.18 "Hg (Nov 23, 6:30 am)
Low48 °F (Nov 28, 5:30 am)24% (Nov 19, 2:30 pm)29.83 "Hg (Nov 19, 2:30 pm)
Average63 °F52%30.01 "Hg
* Reported Nov 17 10:30 pm — Dec 2 11:00 pm, Jalalabad, Weather by CustomWeather, © 2016

Note: Actual official high and low records may vary slightly from our data, if they occured in-between our weather recording intervals... More about our weather records

Advertising

Jalalabad Weather History for the Previous 24 Hours

Scroll right to see more
 ConditionsComfort  
Time TempWeatherWind HumidityBarometerVisibility
11:00 pm
Fri, Dec 2
61 °FPassing clouds.5 mph55%30.09 "Hg2 mi
10:30 pm61 °FPassing clouds.5 mph55%30.09 "Hg2 mi
10:00 pm61 °FPassing clouds.5 mph55%30.09 "Hg2 mi
9:30 pm61 °FPassing clouds.5 mph55%30.09 "Hg2 mi
9:00 pm61 °FPassing clouds.No wind55%30.07 "Hg2 mi
8:30 pm61 °FPassing clouds.No wind55%30.07 "Hg2 mi
7:30 pm63 °FPassing clouds.No wind52%30.07 "Hg2 mi
7:00 pm64 °FPassing clouds.No wind49%30.07 "Hg2 mi
6:30 pm64 °FPassing clouds.No wind49%30.07 "Hg2 mi
6:00 pm68 °FPassing clouds.No wind43%30.07 "Hg2 mi
5:30 pm68 °FPassing clouds.No wind43%30.07 "Hg2 mi
5:00 pm73 °FPassing clouds.No wind38%30.04 "Hg2 mi
4:30 pm73 °FScattered clouds.No wind38%30.04 "Hg2 mi
4:00 pm77 °FScattered clouds.5 mph36%30.04 "Hg3 mi
3:30 pm77 °FScattered clouds.5 mph36%30.04 "Hg3 mi
3:00 pm77 °FScattered clouds.5 mph36%30.07 "Hg3 mi
2:30 pm77 °FScattered clouds.5 mph36%30.07 "Hg3 mi
2:00 pm79 °FHaze.7 mph34%30.07 "Hg3 mi
1:30 pm79 °FHaze.7 mph34%30.07 "Hg3 mi
1:00 pm79 °FHaze.7 mph34%30.09 "Hg3 mi
12:30 pm79 °FHaze.7 mph34%30.09 "Hg3 mi
12:00 pm75 °FHaze.5 mph36%30.15 "Hg3 mi
11:30 am75 °FHaze.5 mph36%30.15 "Hg3 mi
11:00 am73 °FHaze.5 mph38%30.18 "Hg2 mi
10:30 am73 °FHaze.5 mph38%30.18 "Hg2 mi
10:00 am68 °FScattered clouds.5 mph40%30.18 "Hg2 mi
9:30 am68 °FScattered clouds.5 mph40%30.18 "Hg2 mi
9:00 am61 °FScattered clouds.5 mph52%30.15 "Hg2 mi
8:30 am61 °FScattered clouds.5 mph52%30.15 "Hg1 mi
8:00 am55 °FScattered clouds.5 mph55%30.15 "Hg2 mi
7:30 am55 °FScattered clouds.5 mph55%30.15 "Hg2 mi
7:00 am54 °FScattered clouds.5 mph63%30.12 "Hg2 mi
6:30 am54 °FHaze.5 mph63%30.12 "Hg2 mi
6:00 am52 °FClear.5 mph62%30.09 "Hg2 mi
5:30 am52 °FClear.5 mph62%30.09 "Hg2 mi
5:00 am55 °FClear.5 mph55%30.09 "Hg2 mi
4:29 am55 °FClear.5 mph55%30.09 "Hg2 mi
4:00 am55 °FClear.5 mph55%30.09 "Hg2 mi
3:30 am55 °FClear.5 mph55%30.09 "Hg2 mi
2:30 am55 °FClear.7 mph77%30.09 "Hg2 mi
1:30 am57 °FHaze.9 mph51%30.12 "Hg2 mi
12:30 am57 °FHaze.9 mph51%30.12 "Hg2 mi
Weather by CustomWeather, © 2016

See weather overviewHow to use our weather pages